Retour au catalogue

IRS P6

ActifScienceSSO
NORAD 28051·PAYLOAD·🇮🇳 India

Lancé Oct 17, 2003 depuis Satish Dhawan Space Centre

Loading…

Prochains Passages (prochaines 24 heures)

TLE

FraisSource: Space-Track

Époque: Sep 14, 2026, 23:15 UTC

1 28051U 03046A   26257.96922738  .00000030  00000-0  23594-4 0  9997
2 28051  98.1847 290.0618 0065381  72.9859  20.8397 14.36185221193414

Suivez IRS P6 en temps réel avec AllMySat

Download on the App Store